"Time","Temp","Dewpoint","Humidity","Pressure","Direction","Speed","Gust","Precip","PrecipRate"
"00:04:56","32","29.9","92","29.71","331","5.3","12","0.00","0.00"
"00:09:58","32","29.9","92","29.70","344","4.1","12","0.00","0.00"
"00:14:58","32","29.9","92","29.70","334","5.4","12","0.00","0.00"
"00:19:59","32.1","30","92","29.70","333","4.8","10","0.00","0.00"
"00:24:59","32.1","30","92","29.70","334","4.9","12","0.00","0.00"
"00:29:59","32.1","30","92","29.70","333","5.6","12","0.00","0.00"
"00:34:56","32.1","30","92","29.70","310","4.9","12","0.00","0.00"
"00:39:59","32.1","30","92","29.69","333","5.8","12","0.00","0.00"
"00:44:58","32.1","30","92","29.69","319","4.7","10.4","0.00","0.00"
"00:49:57","32.1","30.2","92.5","29.69","330","4.4","15","0.00","0.00"
"00:54:57","32.1","30","92","29.69","333","4.9","15","0.00","0.00"
"00:59:56","32.1","30","92","29.69","331","5","12","0.00","0.00"
"01:04:57","32.1","30","92","29.69","337","6.5","12","0.00","0.00"
"01:09:57","32.1","30","92","29.69","330","5.7","12","0.00","0.00"
"01:14:58","32.1","30","92","29.69","328","5","12","0.00","0.00"
"01:19:57","32.1","30","92","29.69","323","4.7","16","0.00","0.00"
"01:24:58","32.1","30","92","29.68","338","5.1","12","0.00","0.00"
"01:29:57","32.1","30","92","29.68","325","5.1","13","0.00","0.00"
"01:34:57","32.1","30","92","29.68","337","6.6","12","0.00","0.00"
"01:39:59","32.1","30","92","29.68","331","5.2","10.4","0.00","0.00"
"01:44:58","32","29.9","92","29.68","330","4.4","12","0.00","0.00"
"01:49:57","32","29.9","92","29.68","326","5.1","12","0.00","0.00"
"01:54:58","32","29.9","92","29.68","330","5.5","12","0.00","0.00"
"01:59:56","32","29.9","92","29.68","333","6.5","12","0.00","0.00"
"02:04:56","32","29.9","92","29.68","336","5","13","0.00","0.00"
"02:09:56","32","29.7","91","29.68","344","6.7","14","0.00","0.00"
"02:14:56","32","29.7","91","29.68","335","5.8","14","0.00","0.00"
"02:19:59","32","29.7","91","29.68","335","6.3","15","0.00","0.00"
"02:24:58","32","29.7","91","29.68","320","5.6","12","0.00","0.00"
"02:29:56","32","29.7","91","29.68","328","5.4","12","0.00","0.00"
"02:34:57","31.9","29.5","90.7","29.68","327","6.5","13","0.00","0.00"
"02:39:57","31.8","29.3","90.2","29.68","337","7.3","15","0.00","0.00"
"02:44:57","31.8","29.3","90.2","29.68","334","6.5","15","0.00","0.00"
"02:49:57","31.8","29.4","90.6","29.68","343","6.6","15","0.00","0.00"
"02:54:56","31.7","29.3","90.6","29.68","328","5.9","12","0.00","0.00"
"02:59:59","31.7","29.4","91","29.68","337","5.8","13","0.00","0.00"
"03:04:56","31.6","29.3","91","29.68","327","5.3","12","0.00","0.00"
"03:09:56","31.6","29.3","91","29.68","333","6","16.1","0.00","0.00"
"03:14:56","31.5","29.2","91","29.68","334","5.4","16","0.00","0.00"
"03:19:59","31.4","29.1","91","29.67","348","6.8","15","0.00","0.00"
"03:24:58","31.4","29.1","91","29.67","328","4.9","15","0.00","0.00"
"03:29:59","31.4","29.1","91","29.67","331","5.9","14","0.00","0.00"
"03:34:56","31.4","29.1","91","29.67","332","5.8","13","0.00","0.00"
"03:39:59","31.4","29.1","91","29.67","337","3.8","11","0.00","0.00"
"03:44:59","31.3","29","91","29.67","322","4.9","12","0.00","0.00"
"03:49:57","31.2","28.9","91","29.67","336","5.9","15","0.00","0.00"
"03:54:56","31.2","28.9","91","29.67","326","4.3","11.5","0.00","0.00"
"03:59:58","31","28.9","91.8","29.67","337","4.7","10.4","0.00","0.00"
"04:04:59","30.9","28.9","92","29.67","314","5.3","13","0.00","0.00"
"04:09:59","30.8","28.8","92","29.67","329","5.3","13","0.00","0.00"
"04:14:58","30.8","28.8","92","29.67","333","5","12","0.00","0.00"
"04:19:57","30.7","28.7","92","29.66","331","5.4","11","0.00","0.00"
"04:24:59","30.6","28.6","92","29.66","331","5.8","12","0.00","0.00"
"04:29:59","30.6","28.6","92","29.66","326","5.2","14","0.00","0.00"
"04:34:56","30.6","28.6","92","29.66","313","4","14","0.00","0.00"
"04:39:58","30.5","28.5","92","29.66","314","5.4","12","0.00","0.00"
"04:44:58","30.5","28.5","92","29.66","328","5.6","15","0.00","0.00"
"04:49:57","30.4","28.4","92","29.66","334","5.5","15","0.00","0.00"
"04:54:56","30.4","28.4","92","29.66","334","5.5","13","0.00","0.00"
"04:59:58","30.4","28.3","91.6","29.67","334","5.1","15","0.00","0.00"
"05:04:58","30.4","28.1","91","29.67","334","5.1","13","0.00","0.00"
"05:09:58","30.4","28.1","91","29.67","321","4.7","13","0.00","0.00"
"05:14:58","30.4","28.1","91","29.67","319","4.8","12","0.00","0.00"
"05:19:57","30.5","28.1","90.8","29.66","327","5","9.2","0.00","0.00"
"05:24:59","30.5","27.9","90.3","29.66","323","4.7","13","0.00","0.00"
"05:29:56","30.5","27.9","90","29.66","325","5.1","12","0.00","0.00"
"05:34:56","30.5","27.8","89.8","29.66","325","6.3","16","0.00","0.00"
"05:39:59","30.5","27.8","89.5","29.66","327","5.3","16.1","0.00","0.00"
"05:44:59","30.5","27.8","89.8","29.66","320","5.8","13","0.00","0.00"
"05:49:58","30.5","27.6","89","29.66","332","6.4","16.1","0.00","0.00"
"05:54:57","30.5","27.6","89","29.66","329","5.7","14","0.00","0.00"
"05:59:59","30.5","27.6","89","29.66","332","5.7","12","0.00","0.00"
"06:04:59","30.5","27.6","89.1","29.66","329","5.1","12","0.00","0.00"
"06:09:57","30.4","27.7","89.5","29.66","346","6.3","10.4","0.00","0.00"
"06:14:56","30.4","27.7","89.8","29.67","333","5.1","14","0.00","0.00"
"06:19:59","30.3","27.7","90","29.67","324","4.7","10","0.00","0.00"
"06:24:58","30.3","27.7","90","29.67","336","6.6","12","0.00","0.00"
"06:29:59","30.3","27.7","90","29.67","329","4.5","12","0.00","0.00"
"06:34:59","30.3","27.7","90","29.67","328","5.2","13","0.00","0.00"
"06:39:57","30.2","27.6","90","29.67","328","5.3","10.4","0.00","0.00"
"06:44:55","30.2","27.6","90.1","29.67","329","4.8","12","0.00","0.00"
"06:49:59","30.1","27.8","91","29.67","325","4","8.1","0.00","0.00"
"06:54:59","30.1","27.7","90.7","29.67","334","4.4","10","0.00","0.00"
"06:59:57","30.1","27.5","90","29.68","334","5.6","13","0.00","0.00"
"07:04:57","30.1","27.5","90","29.68","321","5.6","17.3","0.00","0.00"
"07:09:53","30.2","27.6","90","29.68","339","5.9","12","0.00","0.00"
"07:14:58","30.2","27.6","90","29.68","329","4.6","12","0.00","0.00"
"07:19:58","30.2","27.6","90","29.68","337","5.8","12","0.00","0.00"
"07:24:56","30.2","27.6","90","29.68","336","5.7","13","0.00","0.00"
"07:29:59","30.2","27.6","90","29.68","332","5.6","14","0.00","0.00"
"07:34:56","30.2","27.5","89.5","29.68","328","4.8","14","0.00","0.00"
"07:39:59","30.2","27.3","89","29.68","322","4.6","14","0.00","0.00"
"07:44:55","30.3","27.4","89","29.68","332","5.3","12","0.00","0.00"
"07:49:59","30.3","27.4","89","29.68","323","5.3","13","0.00","0.00"
"07:54:59","30.3","27.4","89","29.68","328","5.1","13","0.00","0.00"
"07:59:56","30.4","27.4","88.5","29.68","321","5.7","14","0.00","0.00"
"08:04:57","30.5","27.4","88","29.68","332","6.2","12","0.00","0.00"
"08:09:58","30.6","27.5","88","29.68","330","4.7","12","0.00","0.00"
"08:14:58","30.6","27.4","87.8","29.68","329","5.5","12","0.00","0.00"
"08:19:59","30.7","27.3","87.1","29.68","350","6.5","16","0.00","0.00"
"08:24:58","30.8","27.4","87","29.68","338","6.3","16.1","0.00","0.00"
"08:29:56","30.9","27.5","87","29.68","327","6.6","15","0.00","0.00"
"08:34:56","30.9","27.4","86.8","29.67","329","5.6","15","0.00","0.00"
"08:39:56","30.9","27.5","86.9","29.67","324","5.8","15","0.00","0.00"
"08:44:56","31","27.5","86.6","29.67","343","8.1","17.3","0.00","0.00"
"08:49:56","31.1","27.6","86.7","29.67","344","5.6","16","0.00","0.00"
"08:54:59","31.1","27.4","86","29.67","308","6.1","12.7","0.00","0.00"
"08:59:57","31.2","27.8","86.9","29.67","328","4.2","11.5","0.00","0.00"
"09:04:57","31.3","27.9","87","29.67","325","4.9","14","0.00","0.00"
"09:09:57","31.4","28","87","29.67","343","6.1","15","0.00","0.00"
"09:14:56","31.5","28.1","87","29.67","331","5","15","0.00","0.00"
"09:19:58","31.5","28.1","87","29.67","343","5.1","12","0.00","0.00"
"09:24:57","31.5","28.2","87.3","29.67","328","4.4","9.2","0.00","0.00"
"09:29:58","31.7","28.4","87.3","29.67","332","5.8","16","0.00","0.00"
"09:34:57","31.7","28.3","86.8","29.67","332","5.6","16","0.00","0.00"
"09:39:59","31.9","28.5","87","29.66","330","5.2","12","0.00","0.00"
"09:44:58","31.9","28.6","87.5","29.67","328","4.2","10.4","0.00","0.00"
"09:49:57","31.9","28.8","87.8","29.67","332","5.4","12","0.00","0.00"
"09:54:57","32","28.6","87.1","29.67","319","5.5","12","0.00","0.00"
"09:59:58","32.1","28.7","87","29.67","324","6.2","16","0.00","0.00"
"10:04:59","32.1","28.4","86.1","29.66","326","9","20","0.00","0.00"
"10:09:58","32","28.4","86.4","29.66","335","7.9","20","0.00","0.00"
"10:14:57","31.9","28.3","86.2","29.66","335","8.8","22","0.00","0.00"
"10:19:56","31.9","28.3","86.4","29.66","326","6.9","20","0.00","0.00"
"10:24:59","32","28.2","85.7","29.66","325","7.5","13","0.00","0.00"
"10:29:56","32.1","28.4","85.8","29.66","323","8.3","17","0.00","0.00"
"10:34:56","32.2","28.3","85.4","29.66","336","8.1","17.3","0.00","0.00"
"10:39:58","32.2","28.5","85.7","29.66","330","7.8","13","0.00","0.00"
"10:44:58","32.2","28.5","86","29.66","339","9.4","17.3","0.00","0.00"
"10:49:57","32.2","28.6","86.2","29.66","335","8.5","17","0.00","0.00"
"10:54:59","32.2","28.7","86.5","29.66","313","6.8","15","0.00","0.00"
"10:59:57","32.3","28.8","86.5","29.66","338","8.1","18","0.00","0.00"
"11:04:56","32.4","28.8","86.4","29.66","331","7.9","16","0.00","0.00"
"11:09:56","32.4","28.9","86.4","29.66","335","9.3","21","0.00","0.00"
"11:14:59","32.6","28.9","86","29.66","319","7.7","21","0.00","0.00"
"11:19:57","32.8","28.8","85.3","29.65","326","7.3","19","0.00","0.00"
"11:24:57","33","29","85.2","29.65","341","7.9","20","0.00","0.00"
"11:29:59","33.2","29.1","84.7","29.65","330","8.7","17","0.00","0.00"
"11:34:55","33.4","29.3","84.8","29.65","332","9","17.3","0.00","0.00"
"11:39:57","33.5","29.3","84.3","29.65","326","9.2","20","0.00","0.00"
"11:44:56","33.6","29.6","85.2","29.65","336","8.1","17.3","0.00","0.00"
"11:49:59","33.7","29.7","84.8","29.64","337","10.1","17.3","0.00","0.00"
"11:54:57","33.6","29.6","84.8","29.63","324","9.3","18.4","0.00","0.00"
"11:59:58","33.8","29.7","84.7","29.63","334","8.9","24.2","0.00","0.00"
"12:04:58","34.3","29.8","83.3","29.63","330","9.1","18.4","0.00","0.00"
"12:09:58","34.5","29.6","81.9","29.63","332","9","20","0.00","0.00"
"12:14:56","34.7","29.8","81.9","29.63","318","7.1","20","0.00","0.00"
"12:19:58","34.8","29.5","80.8","29.62","328","8.3","18.4","0.00","0.00"
"12:24:56","34.9","29.7","80.8","29.62","324","8","14","0.00","0.00"
"12:29:57","35.2","29.6","79.9","29.62","325","9.3","16","0.00","0.00"
"12:34:58","35.5","29.6","78.9","29.61","318","7.4","19","0.00","0.00"
"12:39:58","35.8","29.7","78.3","29.61","310","8.1","20","0.00","0.00"
"12:44:58","35.9","29.6","77.6","29.61","322","8.5","20","0.01","0.01"
"12:49:58","35.8","29.3","77.1","29.60","327","9.8","19","0.01","0.01"
"12:54:57","35.8","29.3","77.2","29.60","347","7.9","20","0.01","0.01"
"12:59:59","35.9","29.3","76.8","29.60","320","8.3","16.1","0.02","0.02"
"13:04:57","35.8","29","76.1","29.60","316","9.5","18.4","0.03","0.03"
"13:09:57","35.8","29.1","76.4","29.60","329","9.2","22","0.03","0.03"
"13:14:55","35.7","29.2","76.8","29.60","325","6.6","16","0.04","0.03"
"13:19:58","35.5","28.8","76","29.60","325","9.1","18.4","0.04","0.04"
"13:24:56","35.4","28.7","76.2","29.60","324","9.5","17.3","0.05","0.05"
"13:29:58","35.4","28.7","76.3","29.60","322","8.5","17.3","0.05","0.05"
"13:34:57","35.5","28.4","75.2","29.60","307","7.7","14","0.05","0.05"
"13:39:56","35.4","28.2","74.9","29.60","326","8","17.3","0.06","0.06"
"13:44:56","35.2","28","74.8","29.60","323","8.4","16.1","0.06","0.06"
"13:49:58","35.1","27.7","74.2","29.60","324","9.1","18","0.07","0.05"
"13:54:57","35.2","27.8","74.4","29.60","330","8","17","0.07","0.06"
"13:59:59","35.2","27.7","73.9","29.60","329","9.8","17","0.07","0.06"
"14:04:59","35.2","27.5","73.4","29.60","333","9.6","19","0.07","0.05"
"14:09:59","35.3","27.7","73.8","29.60","318","6.7","19","0.07","0.04"
"14:14:58","35.4","27.9","74","29.60","313","6.6","16.1","0.07","0.04"
"14:19:57","35.6","27.9","73.2","29.60","316","7.4","20","0.08","0.04"
"14:24:56","35.5","27.6","72.8","29.60","320","8.2","20","0.08","0.04"
"14:29:57","35.3","27.5","73","29.60","324","7.8","17.3","0.08","0.03"
"14:34:57","35.3","27.3","72.4","29.60","319","9.5","16","0.09","0.04"
"14:39:59","35.1","27.1","72.3","29.60","327","9.8","20","0.09","0.04"
"14:44:58","35","26.9","72","29.60","330","10.4","20","0.09","0.03"
"14:49:57","34.8","26.8","72.3","29.60","327","9.3","23","0.09","0.03"
"14:54:57","34.8","26.8","72.3","29.60","330","9.2","23","0.09","0.02"
"14:59:59","34.8","26.8","72.4","29.60","332","10.4","20","0.09","0.02"
"15:04:59","34.8","26.6","71.8","29.60","332","10.1","21","0.09","0.02"
"15:09:56","34.8","26.6","71.8","29.60","324","7.3","24","0.09","0.02"
"15:14:59","34.7","26.2","70.7","29.60","325","12","24.2","0.10","0.03"
"15:19:58","34.6","26.2","71.2","29.60","336","8.5","16.1","0.10","0.03"
"15:24:57","34.6","26.2","71","29.60","341","8.1","21","0.10","0.02"
"15:29:56","34.6","26","70.5","29.60","331","8.8","21","0.10","0.02"
"15:34:59","34.6","26","70.6","29.60","331","9.6","23","0.10","0.02"
"15:39:58","34.6","25.9","70.2","29.60","343","6.4","23","0.10","0.01"
"15:44:58","34.6","26","70.5","29.60","329","6.5","17.3","0.10","0.01"
"15:49:57","34.4","25.6","70","29.60","325","7.5","17.3","0.10","0.01"
"15:54:56","34.3","25.6","70.3","29.60","298","8","13","0.10","0.01"
"15:59:58","34.1","24.9","68.7","29.61","306","9.2","18","0.10","0.01"
"16:04:58","34","25","69.3","29.61","332","9.4","20","0.10","0.01"
"16:09:58","33.9","24.8","69","29.61","322","9.1","20","0.11","0.02"
"16:14:58","33.8","24.9","69.5","29.61","327","7.7","24","0.11","0.01"
"16:19:56","33.7","24.3","67.9","29.61","315","7.6","24","0.11","0.01"
"16:24:56","33.6","23.9","67.3","29.61","314","8.2","15","0.11","0.01"
"16:29:58","33.6","23.6","66.6","29.62","317","6.6","15","0.11","0.01"
"16:34:59","33.5","23.6","66.5","29.62","300","6.5","13","0.11","0.01"
"16:39:58","33.5","23.4","66.1","29.62","333","7.9","18.4","0.11","0.01"
"16:44:58","33.5","22.6","64","29.62","333","8.7","15","0.11","0.01"
"16:49:58","33.5","22.9","64.6","29.62","318","5.3","15","0.11","0.01"
"16:54:59","33.5","22.3","63.3","29.62","334","8.3","19","0.11","0.01"
"16:59:57","33.5","22.3","63.2","29.62","320","6","16.1","0.11","0.01"
"17:04:58","33.5","22.3","63.2","29.62","317","7","15","0.11","0.01"
"17:09:58","33.5","22.2","62.9","29.62","316","8.1","17.3","0.11","0.01"
"17:14:59","33.5","22.2","62.8","29.62","313","6.5","17","0.11","0.00"
"17:19:59","33.5","22.2","62.9","29.62","326","5.8","16","0.11","0.00"
"17:24:57","33.5","22","62.4","29.62","325","6.3","14","0.11","0.00"
"17:29:57","33.5","22","62.5","29.63","343","7.9","21","0.11","0.00"
"17:34:58","33.5","21.9","62","29.63","329","4.4","17.3","0.11","0.00"
"17:39:59","33.5","22.2","63","29.63","326","4.9","17.3","0.11","0.00"
"17:44:57","33.4","21.9","62.5","29.63","330","7","18.4","0.11","0.00"
"17:49:59","33.4","22.1","63","29.63","328","4.8","19","0.11","0.00"
"17:54:56","33.3","21.5","61.3","29.63","334","8.7","20","0.11","0.00"
"17:59:56","33.5","21.6","61.3","29.63","332","8.3","16.1","0.11","0.00"
"18:04:56","33.5","21.7","61.5","29.63","337","9.1","18.4","0.11","0.00"
"18:09:57","33.5","21.4","60.7","29.63","336","9.9","23","0.11","0.00"
"18:14:58","33.5","21.5","60.9","29.64","329","8.9","23","0.11","0.00"
"18:19:59","33.5","21.6","61.3","29.64","324","9.9","22","0.11","0.00"
"18:24:59","33.5","22","62.5","29.64","332","6.6","22","0.11","0.00"
"18:29:59","33.3","22.2","63.2","29.64","324","6.2","14","0.11","0.00"
"18:34:56","33.3","22.3","63.7","29.64","335","4.8","14","0.11","0.00"
"18:39:56","33.2","22.3","64.2","29.64","310","3.8","12","0.11","0.00"
"18:44:59","33","22.5","64.8","29.64","346","4.2","14","0.11","0.00"
"18:49:59","33","21.9","63.3","29.64","321","6.6","16","0.11","0.00"
"18:54:59","33.1","22.2","63.8","29.64","323","6.7","17","0.11","0.00"
"18:59:58","33.2","22.2","63.8","29.65","339","7.9","17.3","0.11","0.00"
"19:04:59","33.1","22.3","64.3","29.65","339","5.9","14","0.11","0.00"
"19:09:56","33","22.4","64.6","29.65","330","7.2","16","0.11","0.00"
"19:14:57","33","22.4","64.7","29.65","322","6.2","18","0.11","0.00"
"19:19:56","33","22.5","65","29.65","332","5.2","12","0.11","0.00"
"19:24:57","33","22.5","65.2","29.65","330","4.3","12","0.11","0.00"
"19:29:57","32.9","22.8","66","29.65","336","3.7","9","0.11","0.00"
"19:34:58","32.8","22.5","65.5","29.65","325","5.6","12","0.11","0.00"
"19:39:57","32.9","22.6","65.6","29.65","327","7.6","24.2","0.11","0.00"
"19:44:58","33","22.5","65","29.65","340","6.3","15","0.11","0.00"
"19:49:58","33","22.6","65.2","29.65","343","8.8","19","0.11","0.00"
"19:54:58","33","22.5","65","29.65","351","7.7","20","0.11","0.00"
"19:59:57","33","22.6","65.3","29.66","348","6.3","26","0.11","0.00"
"20:04:57","32.9","22.6","65.5","29.66","334","8","26","0.11","0.00"
"20:09:58","32.8","22.4","65.1","29.66","320","10.7","33.4","0.11","0.00"
"20:14:59","32.8","22.6","65.8","29.66","328","9.3","33","0.11","0.00"
"20:19:59","32.7","22.8","66.5","29.66","335","7.1","19.6","0.11","0.00"
"20:24:56","32.6","22.6","66.2","29.66","342","9.4","20","0.11","0.00"
"20:29:59","32.6","22.7","66.5","29.66","344","7.5","17","0.11","0.00"
"20:34:57","32.5","22.8","67","29.66","347","7","15","0.11","0.00"
"20:39:56","32.4","22.7","67","29.66","337","8.2","15","0.11","0.00"
"20:44:58","32.4","22.7","67","29.66","334","7.1","18","0.11","0.00"
"20:49:59","32.4","22.3","65.9","29.66","327","9.7","23","0.11","0.00"
"20:54:59","32.4","22.4","66.2","29.66","334","8.7","23","0.11","0.00"
"20:59:59","32.3","22.3","66.3","29.66","333","8.3","15","0.11","0.00"
"21:04:56","32.2","22.1","65.8","29.66","326","7.9","18","0.11","0.00"
"21:09:57","32.2","21.8","65.1","29.66","334","10","19","0.11","0.00"
"21:14:56","32.2","21.7","65","29.66","328","8.1","20","0.11","0.00"
"21:19:57","32.2","21.9","65.5","29.66","324","8.4","27","0.11","0.00"
"21:24:58","32.1","21.9","65.6","29.66","334","7.2","17","0.11","0.00"
"21:29:58","32","21.6","65.1","29.66","335","10.3","19","0.11","0.00"
"21:34:56","32","21.4","64.7","29.66","330","10.6","18.4","0.11","0.00"
"21:39:56","31.9","21.4","64.8","29.66","330","9.6","24","0.11","0.00"
"21:44:56","31.8","21.4","65","29.67","334","8","20","0.11","0.00"
"21:49:57","31.7","21.3","65","29.67","315","10.4","22","0.11","0.00"
"21:54:58","31.7","21.2","64.9","29.67","325","8.4","22","0.11","0.00"
"21:59:58","31.5","21.1","65","29.67","332","7.4","16.1","0.11","0.00"
"22:04:58","31.4","21","65","29.67","321","8.4","15","0.11","0.00"
"22:09:56","31.4","21","65.2","29.67","338","7.8","16.1","0.11","0.00"
"22:14:58","31.2","20.9","65.3","29.67","329","7.7","16","0.11","0.00"
"22:19:59","31.2","21","65.7","29.66","328","7.3","19","0.11","0.00"
"22:24:56","31.1","20.9","65.4","29.66","329","8.6","22","0.11","0.00"
"22:29:56","31.1","20.9","65.5","29.66","328","6.8","18.4","0.11","0.00"
"22:34:57","31","20.9","65.7","29.66","328","8","18.4","0.11","0.00"
"22:39:57","31.1","21","65.9","29.66","325","6.5","14","0.11","0.00"
"22:44:58","31.1","21.1","66","29.66","319","6.8","13","0.11","0.00"
"22:49:58","31.1","21","65.7","29.66","323","7.1","13","0.11","0.00"
"22:54:56","31.1","21.1","66","29.66","324","6.4","14","0.11","0.00"
"22:59:56","31.1","21.1","66","29.66","326","6.2","12","0.11","0.00"
"23:04:57","31.1","21.2","66.4","29.65","321","4.4","13","0.11","0.00"
"23:09:58","31","21.1","66.4","29.65","329","5","15","0.11","0.00"
"23:14:59","31.1","21.2","66.4","29.65","332","6","15","0.11","0.00"
"23:19:56","31.1","21.3","66.5","29.65","323","6.9","13","0.11","0.00"
"23:24:57","31.2","21.2","66","29.65","326","7.2","15","0.11","0.00"
"23:29:57","31.3","21.3","66","29.65","326","6","15","0.11","0.00"
"23:34:58","31.3","21.3","66.1","29.65","324","7.4","15","0.11","0.00"
"23:39:58","31.3","21.6","66.8","29.65","318","5.1","14","0.11","0.00"
"23:44:59","31.3","21.7","67.2","29.65","323","3.6","10.4","0.11","0.00"
"23:49:59","31.2","21.5","67","29.65","314","5.5","13","0.11","0.00"
"23:54:59","31.2","21.6","67.3","29.65","317","4.7","11.5","0.11","0.00"
"23:59:59","31.3","21.6","67","29.65","330","5.6","12","0.11","0.00"
